Regional Weather Roundup
Issued by NWS

Home | Current Version | Previous Version | Text Only | Print | Product List | Glossary On
Versions: 1 2 3 4 5 6 7 8 9 10 11 12 13 14 15 16 17 18 19 20 21 22 23 24 25 26 27 28 29 30 31 32 33 34 35 36 37 38 39 40 41 42 43 44 45 46 47 48 49 50
000
ASUS43 KDMX 032307
RWRIA

WEATHER ROUNDUP FOR IOWA
NATIONAL WEATHER SERVICE DES MOINES IA
500 PM CST TUE MAR 03 2015

NOTE: "FAIR" INDICATES FEW OR NO CLOUDS BELOW 12,000 FEET WITH NO
SIGNIFICANT WEATHER AND/OR OBSTRUCTIONS TO VISIBILITY.

* - THESE STATIONS ARE NOT NWS STATIONS...THUS NOT UNDER NWS
QUALITY CONTROL.  THEY ALSO DO NOT REPORT WEATHER SUCH
AS PRECIPITATION OR FOG.

IAZ001>003-012>014-020>022-031>034-043>046-040000-
   NORTHWEST IOWA

CITY           SKY/WX    TMP DP  RH WIND       PRES   REMARKS
CARROLL *      CLOUDY    27  18  69 NW28      29.90R WCI  11
CHEROKEE *     SUNNY     21  10  63 NW17G29   29.95R WCI   7
DENISON *      MOSUNNY   27  16  63 NW18      29.90R WCI  13
LE MARS *      MOSUNNY   21   9  58 NW21G32   29.98S WCI   6
ORANGE CITY *  PTSUNNY   19   9  63 NW14G29   29.96R WCI   6
SHELDON *      CLOUDY    18   9  68 NW24G32   29.94R WCI   0
SIOUX CITY     SUNNY     24   8  50 NW26      29.97R WCI   8
SPENCER        FLURRIES  19  10  68 NW23G36   29.93R WCI   2
STORM LAKE *   MOSUNNY   21  12  68 NW25G33   29.91R WCI   4
$$

IAZ055>058-069>071-079>083-090>094-040000-
   SOUTHWEST IOWA

CITY           SKY/WX    TMP DP  RH WIND       PRES   REMARKS
ATLANTIC *     CLOUDY    28  19  69 N22       29.90S WCI  15
AUDUBON *      MOSUNNY   27  19  74 N15G25    29.90R WCI  15
CLARINDA *     CLOUDY    32  25  74 N17       29.92S WCI  21
COUNCIL BLFS * MOSUNNY   28  18  64 N21G29    29.91R WCI  15
CRESTON *      CLOUDY    30  25  80 NW20G29   29.87R WCI  18
HARLAN  *      PTSUNNY   28  21  74 N23       29.95R WCI  14
LAMONI         CLOUDY    34  26  72 NW17      29.85R WCI  23
RED OAK *      CLOUDY    30  21  69 N16G22    29.93R WCI  19
SHENANDOAH *   CLOUDY    32  21  64 NW18      29.94R WCI  20
$$

IAZ047>049-059>061-072>074-084-040000-
   CENTRAL IOWA

CITY           SKY/WX    TMP DP  RH WIND       PRES   REMARKS
AMES           CLOUDY    28  20  71 N26       29.87R WCI  13
ANKENY *       CLOUDY    30  23  74 NW14G25   29.88R WCI  20
CHARITON *     CLOUDY    34  27  75 NW17G24   29.83F WCI  23
DES MOINES     CLOUDY    31  21  66 N18G30    29.87R WCI  19
GRINNELL*      CLOUDY    30  25  80 NW18      29.84R WCI  18
KNOXVILLE *    CLOUDY    34  27  75 NW20G30   29.83R WCI  22
MARSHALLTOWN   CLOUDY    27  21  78 NW28G35   29.84R WCI  11
PELLA *        CLOUDY    32  30  93 NW16G24   29.86R WCI  21
PERRY *          N/A     28  23  80 NW22G28   29.89R WCI  15
$$

IAZ004>006-015-016-023>025-035-036-040000-
   NORTH CENTRAL IOWA

CITY           SKY/WX    TMP DP  RH WIND       PRES   REMARKS
ALGONA *       PTSUNNY   21 N/A N/A NW23G31   29.88R WCI   5
CLARION *      PTSUNNY   23  18  80 NW26G36   29.85S WCI   6
ESTHERVILLE    PTSUNNY   18  10  71 NW25G32   29.90R WCI   0
FORT DODGE *   PTSUNNY   25  16  68 NW15G23   29.89R WCI  12
MASON CITY     PTSUNNY   21  14  74 NW25G31   29.83R WCI   4
FOREST CITY *  SUNNY     23  12  63 NW21G29   29.82S WCI   8
IOWA FALLS *   PTSUNNY   25  18  74 NW29G36   29.84R WCI   8
$$

IAZ007>011-017>019-026>030-037>042-050>054-066-040000-
   NORTHEAST IOWA

CITY           SKY/WX    TMP DP  RH WIND       PRES   REMARKS
CEDAR RAPIDS   CLOUDY    32  26  78 NW17      29.78R WCI  21
CHARLES CITY * CLOUDY    25  19  80 NW20G31   29.80R WCI  11
CLINTON *      CLOUDY    34  27  75 W18       29.78R WCI  23
DECORAH *      CLOUDY    28  23  80 W10G20    29.73R WCI  19
DUBUQUE        CLOUDY    30  25  81 NW16G23   29.73R WCI  19
MONTICELLO *   CLOUDY    32  28  86 W14G20    29.76R WCI  22
OELWEIN *      CLOUDY    28  25  86 W22       29.76R WCI  15
WATERLOO       CLOUDY    27  21  78 NW15      29.80R WCI  15
$$

IAZ064-065-067-068-078-040000-
   EAST CENTRAL IOWA

CITY           SKY/WX    TMP DP  RH WIND       PRES   REMARKS
DAVENPORT      CLOUDY    33  25  72 NW20      29.77R WCI  21
IOWA CITY      CLOUDY    33  25  72 NW13      29.83R WCI  24
MT. PLEASANT * CLOUDY    34  27  75 NW15      29.83R WCI  24
MUSCATINE *    MOCLDY    34  28  80 NW10      29.83R WCI  26
QUAD CITIES    CLOUDY    34  28  79 W9        29.78R WCI  27
$$

IAZ062-063-075>077-085>089-095>099-040000-
   SOUTHEAST IOWA

CITY           SKY/WX    TMP DP  RH WIND       PRES   REMARKS
BURLINGTON     CLOUDY    35  30  82 NW9       29.82R WCI  28
FAIRFIELD *    CLOUDY    34  27  75 NW13      29.83R WCI  25
FORT MADISON * CLOUDY    36  30  80 NW9       29.83R WCI  29
KEOKUK *       CLOUDY    37  32  81 NW12      29.83R WCI  30
OSKALOOSA *    CLOUDY    34  28  80 NW12      29.84R WCI  25
CENTERVILLE *  CLOUDY    34  28  80 NW14      29.85R WCI  24
OTTUMWA        CLOUDY    34  26  72 NW14      29.83R WCI  25
WASHINGTON *   CLOUDY    34  32  93 NW15      29.82R WCI  24
$$

ABBREVIATIONS USED IN REMARKS
   TC - TEMPERATURES IN CELSIUS
  WCI - WIND CHILL INDEX
   HX - HEAT INDEX
  VSB - VISIBILITY
$$



USA.gov is the U.S. government's official web portal to all federal, state and local government web resources and services.